Content
SEND FEEDBACK

Daily
Averages
Monthly
Summary
United Kingdom

BATH, ENGLAND


Home > Europe > United Kingdom > England
Elevation: 595 feet     Latitude: 51 26N     Longitude: 002 17W

WEATHER
 
SELECT A DAY
Number of Records: 192,210;   Date Range: 7/1/96 - 11/25/14
 
SHARE

PRINT THIS DATA

[ ← Previous Day ]
WEATHER ALMANAC - JANUARY 12, 2014
[ Next Day → ]
[ °C ]   °F
Weather ElementAverageHighLow
Temperature39.8 °F47 °F (9:00 pm)29 °F (1:00 am)
Dewpoint38.2 °F46 °F (9:00 pm)28 °F (1:00 am)
Humidity91.5 %97 % (1:00 pm)84 % (8:00 am)
Barometer29.95 in30.24 in (1:00 am)29.65 in (9:00 pm)
Wind Speed13.8 mph19.6 mph (10:00 pm)
Weather ElementAverage
Wind DirectionSSE (148.7 °)

Weather ElementTotal
Precipitation---
Heating Degree Days27 (Base 65)
Averaged from 23 records on January 12, 2014
WEATHER CONDITIONS BREAKOUT
WIND DIRECTION BREAKOUT
WEATHER BY HOUR - JANUARY 12, 2014
[ °C ]   °F
Local TimeTemperatureDewpointHumidityBarometerVisibilityWind DirectionWind SpeedGust SpeedPrecipitationEventsConditions
1:00 AM29.0 °F28.0 °F94 %30.24 inEast (90°)5.8 mph
2:00 AM31.0 °F30.0 °F93 %30.22 inSE (140°)9.2 mph
3:00 AM32.0 °F30.0 °F91 %30.20 inSE (130°)8.1 mph
4:00 AM33.0 °F31.0 °F90 %30.19 inSSE (150°)11.5 mph
5:00 AM34.0 °F33.0 °F92 %30.17 inEast (100°)6.9 mphScattered Clouds
6:00 AM34.0 °F33.0 °F94 %30.12 inSE (130°)10.4 mph
7:00 AM35.0 °F34.0 °F92 %30.10 inESE (110°)8.1 mphMostly Cloudy
8:00 AM37.0 °F34.0 °F84 %30.09 inSE (130°)12.7 mphScattered Clouds
9:00 AM38.0 °F35.0 °F84 %30.07 inSE (140°)13.8 mphScattered Clouds
10:00 AM39.0 °F37.0 °F90 %30.05 inSE (140°)16.1 mphScattered Clouds
11:00 AM40.0 °F38.0 °F88 %30.02 inSE (140°)15.0 mphMostly Cloudy
12:00 PM41.0 °F40.0 °F96 %29.97 inSSE (150°)15.0 mphOvercast
1:00 PM42.0 °F41.0 °F97 %29.93 inSSE (160°)17.3 mphOvercast
2:00 PM43.0 °F41.0 °F90 %29.88 inSSE (160°)13.8 mphScattered Clouds
3:00 PM44.0 °F41.0 °F86 %29.85 inSSE (150°)17.3 mphMostly Cloudy
4:00 PM44.0 °F42.0 °F88 %29.82 inSSE (150°)15.0 mphMostly Cloudy
5:00 PM44.0 °F43.0 °F93 %29.78 inSSE (150°)15.0 mphOvercast
6:00 PM45.0 °F44.0 °F92 %29.75 inSSE (150°)17.3 mphOvercast
7:00 PM45.0 °F44.0 °F95 %29.71 inSSE (160°)18.4 mphOvercast
8:00 PM46.0 °F45.0 °F95 %29.68 inSSE (150°)17.3 mphOvercast
9:00 PM47.0 °F46.0 °F95 %29.65 inSSE (160°)16.1 mphOvercast
10:00 PM47.0 °F46.0 °F93 %29.67 inWSW (240°)19.6 mphMostly Cloudy
11:00 PM45.0 °F43.0 °F92 %29.70 inWSW (240°)17.3 mphMostly Cloudy
Hourly data recorded from EGDL, located miles away from Bath, England







STORIES FROM OUR PARTNERS